Terminal Aerodrome Forecast
Issued by NWS Norman, OK

Home | Current Version | Previous Version | Text Only | Print | Product List | Glossary On
Versions: 1 2 3 4 5 6 7 8 9 10 11 12 13 14 15 16 17 18 19 20 21 22 23 24 25
000
FTUS44 KOUN 051120
TAFOKC
TAF
KOKC 051120Z 0512/0612 15010KT P6SM FEW150 BKN250
     FM051500 16015G23KT P6SM BKN040
     FM051900 15012G22KT P6SM OVC030
      TEMPO 0521/0601 5SM -TSRA OVC015CB
     FM060100 15013KT 5SM -TSRA OVC015CB=

USA.gov is the U.S. government's official web portal to all federal, state and local government web resources and services.